Regional Weather Roundup
Issued by NWS

Home | Current Version | Previous Version | Graphics & Text | Print | Product List | Glossary On
Versions: 1 2 3 4 5 6 7 8 9 10 11 12 13 14 15 16 17 18 19 20 21 22 23 24 25 26 27 28 29 30 31 32 33 34 35 36 37 38 39 40 41 42 43 44 45 46 47 48 49 50
000
ASUS43 KDMX 280107
RWRIA

WEATHER ROUNDUP FOR IOWA
NATIONAL WEATHER SERVICE DES MOINES IA
800 PM CDT MON APR 27 2015

NOTE: "FAIR" INDICATES FEW OR NO CLOUDS BELOW 12,000 FEET WITH NO
SIGNIFICANT WEATHER AND/OR OBSTRUCTIONS TO VISIBILITY.

* - THESE STATIONS ARE NOT NWS STATIONS...THUS NOT UNDER NWS
QUALITY CONTROL.  THEY ALSO DO NOT REPORT WEATHER SUCH
AS PRECIPITATION OR FOG.

IAZ001>003-012>014-020>022-031>034-043>046-280200-
   NORTHWEST IOWA

CITY           SKY/WX    TMP DP  RH WIND       PRES   REMARKS
CARROLL *      CLEAR     61  32  33 NE8       30.12R
CHEROKEE *     PTCLDY    63  32  31 E3        30.14S
DENISON *      CLEAR     61  30  31 NE6       30.11S
LE MARS *      CLEAR     66  25  20 E5        30.14S
ORANGE CITY *  CLEAR     64  27  24 NE3       30.14S
SHELDON *      CLEAR     63  25  23 NE8       30.13S
SIOUX CITY     PTCLDY    66  28  24 NE7       30.13S
SPENCER        CLEAR     62  29  28 NE7       30.14S
STORM LAKE *   CLEAR     61  32  33 NE8       30.15R
$$

IAZ055>058-069>071-079>083-090>094-280200-
   SOUTHWEST IOWA

CITY           SKY/WX    TMP DP  RH WIND       PRES   REMARKS
ATLANTIC *     CLEAR     61  34  36 NE7       30.11S
AUDUBON *      CLEAR     61  32  33 NE5       30.13S
CLARINDA *     CLEAR     63  34  34 NE6       30.12R
COUNCIL BLFS * CLEAR     63  34  34 NE10      30.12R
CRESTON *      CLEAR     57  36  44 NE7       30.11R
HARLAN  *      CLEAR     61  34  36 NE7       30.15R
LAMONI         CLEAR     58  36  43 NE7       30.09R
RED OAK *      CLEAR     61  36  39 NE7       30.11R
SHENANDOAH *   CLEAR     63  34  34 NE5       30.11R
$$

IAZ047>049-059>061-072>074-084-280200-
   CENTRAL IOWA

CITY           SKY/WX    TMP DP  RH WIND       PRES   REMARKS
AMES           CLEAR     61  32  33 NE6       30.11R
ANKENY *       CLEAR     61  34  36 NE7       30.11R
CHARITON *     CLEAR     59  37  44 NE6       30.10R
DES MOINES     PTCLDY    65  29  25 NE7       30.11R
GRINNELL*      CLEAR     59  32  36 N5        30.10S
KNOXVILLE *    CLEAR     61  36  39 CALM      30.09R
MARSHALLTOWN   CLEAR     60  35  39 N6        30.09S
PELLA *        CLEAR     61  39  44 CALM      30.11R
PERRY *          N/A     61  32  33 NE6       30.11S
$$

IAZ004>006-015-016-023>025-035-036-280200-
   NORTH CENTRAL IOWA

CITY           SKY/WX    TMP DP  RH WIND       PRES   REMARKS
ALGONA *       CLEAR     61  32  33 N6        30.14S
CLARION *      CLEAR     61  32  33 NE8       30.13R
ESTHERVILLE    PTCLDY    59  32  36 NE6       30.14S
FORT DODGE *   CLEAR     61  34  36 N7        30.14R
MASON CITY     CLEAR     57  33  40 N9        30.13S
FOREST CITY *  CLEAR     57  32  38 N5        30.13S
IOWA FALLS *     N/A     61  32  33 N6        30.12S
$$

IAZ007>011-017>019-026>030-037>042-050>054-066-280200-
   NORTHEAST IOWA

CITY           SKY/WX    TMP DP  RH WIND       PRES   REMARKS
CEDAR RAPIDS   CLEAR     59  36  42 NE7       30.08S
CHARLES CITY * CLEAR     61  34  36 NE7       30.12S
CLINTON *      CLEAR     57  34  41 N6        30.11R
DECORAH *      CLEAR     61  32  33 N3        30.11R
DUBUQUE        CLEAR     56  34  43 N7        30.10R
MONTICELLO *   CLEAR     59  36  41 NE5       30.09S
OELWEIN *      CLEAR     59  36  41 NE8       30.11R
WATERLOO       CLEAR     58  34  40 NE7       30.10R
$$

IAZ064-065-067-068-078-280200-
   EAST CENTRAL IOWA

CITY           SKY/WX    TMP DP  RH WIND       PRES   REMARKS
DAVENPORT      CLEAR     58  34  40 N6        30.09S
IOWA CITY      CLEAR     61  35  37 NE9       30.10R
MT. PLEASANT * CLEAR     59  36  41 NE6       30.09R
MUSCATINE *    CLEAR     57  36  44 NE7       30.09R
QUAD CITIES    CLEAR     62  32  32 N3        30.08S
$$

IAZ062-063-075>077-085>089-095>099-280200-
   SOUTHEAST IOWA

CITY           SKY/WX    TMP DP  RH WIND       PRES   REMARKS
BURLINGTON     CLEAR     59  36  42 NE8       30.08R
FAIRFIELD *    CLEAR     59  37  44 NE3       30.09S
FORT MADISON * CLEAR     59  36  41 NE3       30.09S
KEOKUK *       CLEAR     61  36  39 NE5       30.08R
OSKALOOSA *      N/A     59  36  41 CALM      30.10R
CENTERVILLE *  CLEAR     57  39  51 NE5       30.11R
OTTUMWA        CLEAR     59  36  42 NE3       30.09R
WASHINGTON *   CLEAR     57  39  51 NE6       30.09R
$$

ABBREVIATIONS USED IN REMARKS
   TC - TEMPERATURES IN CELSIUS
  WCI - WIND CHILL INDEX
   HX - HEAT INDEX
  VSB - VISIBILITY
$$




USA.gov is the U.S. government's official web portal to all federal, state and local government web resources and services.